When you browse on this site, cookies collect data to enhance your experience and personalize the content and advertising you see.
Visit our Privacy Policy to learn more. By continuing to use the site, you agree to this use of cookies and data.
  • In Österreich
  • Länderverzeichnis
  • Für 7 Tage
  • Wassertemperatur
  • Satellitenkarten
  • Wetterkarte
  • News
  • Widgets
  • user-avatar
    Anmelden

    Stündliche Wetter Chyzhivka

    Heute, 21 März, Donnerstag

    Zeit Temperatur Niederschläge Wind Luftdruck Luftfeuchtigkeit
    00:00 +3°C° 0 mm 2 m/S 755 mmHg 67%
    01:00 +3°C° 0 mm 2 m/S 755 mmHg 69%
    02:00 +1°C° 0 mm 3 m/S 755 mmHg 70%
    03:00 +1°C° 0 mm 3 m/S 754 mmHg 71%
    04:00 +1°C° 0 mm 3 m/S 754 mmHg 72%
    05:00 0°C° 0 mm 4 m/S 754 mmHg 72%
    06:00 +1°C° 0 mm 4 m/S 754 mmHg 70%
    07:00 +1°C° 0 mm 5 m/S 754 mmHg 67%
    08:00 +2°C° 0 mm 5 m/S 754 mmHg 64%
    09:00 +3°C° 0 mm 5 m/S 754 mmHg 65%
    10:00 +3°C° 0 mm 5 m/S 753 mmHg 67%
    11:00 +5°C° 0 mm 5 m/S 753 mmHg 68%
    12:00 +5°C° 0 mm 5 m/S 753 mmHg 68%
    13:00 +6°C° 0 mm 5 m/S 753 mmHg 67%
    14:00 +7°C° 0 mm 5 m/S 753 mmHg 66%
    15:00 +7°C° 0 mm 5 m/S 753 mmHg 68%
    16:00 +7°C° 0 mm 4 m/S 753 mmHg 70%
    17:00 +6°C° 0 mm 4 m/S 753 mmHg 72%
    18:00 +6°C° 0 mm 4 m/S 753 mmHg 76%
    19:00 +5°C° 0 mm 3 m/S 753 mmHg 81%
    20:00 +4°C° 0 mm 3 m/S 753 mmHg 85%
    21:00 +4°C° 0 mm 3 m/S 753 mmHg 85%
    22:00 +4°C° 0 mm 3 m/S 753 mmHg 85%
    23:00 +4°C° 0 mm 3 m/S 753 mmHg 85%

    Morgen, 22 März, Freitag

    Zeit Temperatur Niederschläge Wind Luftdruck Luftfeuchtigkeit
    00:00 +3°C° 0 mm 3 m/S 753 mmHg 88%
    01:00 +3°C° 0 mm 3 m/S 753 mmHg 90%
    02:00 +3°C° 0 mm 3 m/S 752 mmHg 92%
    03:00 +3°C° 0 mm 4 m/S 752 mmHg 91%
    04:00 +4°C° 0 mm 4 m/S 752 mmHg 90%
    05:00 +4°C° 0 mm 4 m/S 751 mmHg 89%
    06:00 +4°C° 0.1 mm 4 m/S 751 mmHg 90%
    07:00 +5°C° 0.1 mm 5 m/S 751 mmHg 91%
    08:00 +5°C° 0.1 mm 5 m/S 751 mmHg 91%
    09:00 +6°C° 0.1 mm 5 m/S 751 mmHg 90%
    10:00 +7°C° 0.1 mm 5 m/S 751 mmHg 88%
    11:00 +8°C° 0.1 mm 5 m/S 751 mmHg 86%
    12:00 +8°C° 0 mm 5 m/S 751 mmHg 82%
    13:00 +9°C° 0 mm 6 m/S 751 mmHg 77%
    14:00 +10°C° 0 mm 6 m/S 751 mmHg 72%
    15:00 +10°C° 0 mm 6 m/S 751 mmHg 70%
    16:00 +10°C° 0 mm 6 m/S 751 mmHg 68%
    17:00 +10°C° 0 mm 6 m/S 751 mmHg 66%
    18:00 +8°C° 0 mm 5 m/S 751 mmHg 69%
    19:00 +7°C° 0 mm 4 m/S 751 mmHg 72%
    20:00 +6°C° 0 mm 4 m/S 752 mmHg 75%
    21:00 +5°C° 0 mm 4 m/S 752 mmHg 70%
    22:00 +4°C° 0 mm 3 m/S 752 mmHg 65%
    23:00 +3°C° 0 mm 3 m/S 752 mmHg 59%

    übermorgen, 23 März, Samstag

    Zeit Temperatur Niederschläge Wind Luftdruck Luftfeuchtigkeit
    00:00 +3°C° 0 mm 3 m/S 752 mmHg 60%
    01:00 +2°C° 0 mm 3 m/S 752 mmHg 61%
    02:00 +1°C° 0 mm 3 m/S 752 mmHg 62%
    03:00 +1°C° 0 mm 3 m/S 752 mmHg 63%
    04:00 0°C° 0 mm 3 m/S 752 mmHg 64%
    05:00 0°C° 0 mm 3 m/S 752 mmHg 66%
    06:00 0°C° 0 mm 3 m/S 752 mmHg 62%
    07:00 +1°C° 0 mm 3 m/S 752 mmHg 59%
    08:00 0°C° 0 mm 4 m/S 752 mmHg 56%
    09:00 +3°C° 0 mm 4 m/S 752 mmHg 50%
    10:00 +4°C° 0 mm 4 m/S 752 mmHg 43%
    11:00 +6°C° 0 mm 4 m/S 752 mmHg 37%
    12:00 +7°C° 0 mm 4 m/S 752 mmHg 34%
    13:00 +8°C° 0 mm 4 m/S 751 mmHg 31%
    14:00 +10°C° 0 mm 4 m/S 751 mmHg 29%
    15:00 +10°C° 0 mm 4 m/S 751 mmHg 30%
    16:00 +10°C° 0 mm 3 m/S 751 mmHg 32%
    17:00 +10°C° 0 mm 3 m/S 750 mmHg 34%
    18:00 +9°C° 0 mm 2 m/S 750 mmHg 37%
    19:00 +7°C° 0 mm 2 m/S 750 mmHg 41%
    20:00 +7°C° 0 mm 1 m/S 750 mmHg 44%
    21:00 +6°C° 0 mm 1 m/S 750 mmHg 45%
    22:00 +6°C° 0 mm 1 m/S 750 mmHg 45%
    23:00 +6°C° 0 mm 1 m/S 750 mmHg 45%

    24 März, Sonntag

    Zeit Temperatur Niederschläge Wind Luftdruck Luftfeuchtigkeit
    00:00 +5°C° 0 mm 2 m/S 750 mmHg 48%
    01:00 +4°C° 0 mm 2 m/S 749 mmHg 50%
    02:00 +3°C° 0 mm 3 m/S 749 mmHg 52%
    03:00 +3°C° 0 mm 3 m/S 748 mmHg 58%
    04:00 +3°C° 0 mm 3 m/S 748 mmHg 64%
    05:00 +3°C° 0 mm 4 m/S 748 mmHg 70%
    06:00 +4°C° 0.2 mm 4 m/S 748 mmHg 77%
    07:00 +5°C° 0.2 mm 4 m/S 748 mmHg 84%
    08:00 +6°C° 0.2 mm 4 m/S 748 mmHg 92%
    09:00 +6°C° 0.1 mm 4 m/S 748 mmHg 88%
    10:00 +7°C° 0.1 mm 4 m/S 748 mmHg 84%
    11:00 +8°C° 0.1 mm 4 m/S 748 mmHg 81%
    12:00 +10°C° 0 mm 4 m/S 748 mmHg 69%
    13:00 +10°C° 0 mm 4 m/S 748 mmHg 58%
    14:00 +11°C° 0 mm 4 m/S 748 mmHg 47%
    15:00 +11°C° 0 mm 4 m/S 748 mmHg 46%
    16:00 +11°C° 0 mm 4 m/S 748 mmHg 45%
    17:00 +10°C° 0 mm 3 m/S 748 mmHg 44%
    18:00 +9°C° 0 mm 3 m/S 749 mmHg 49%
    19:00 +7°C° 0 mm 2 m/S 749 mmHg 55%
    20:00 +6°C° 0 mm 2 m/S 749 mmHg 60%
    21:00 +6°C° 0 mm 1 m/S 749 mmHg 62%
    22:00 +6°C° 0 mm 1 m/S 749 mmHg 64%
    23:00 +5°C° 0 mm 1 m/S 748 mmHg 65%

    25 März, Montag

    Zeit Temperatur Niederschläge Wind Luftdruck Luftfeuchtigkeit
    00:00 +5°C° 0 mm 1 m/S 748 mmHg 67%
    01:00 +4°C° 0 mm 1 m/S 748 mmHg 68%
    02:00 +4°C° 0 mm 1 m/S 747 mmHg 70%
    03:00 +4°C° 0 mm 1 m/S 747 mmHg 72%
    04:00 +2°C° 0 mm 2 m/S 746 mmHg 74%
    05:00 +2°C° 0 mm 2 m/S 746 mmHg 77%
    06:00 +3°C° 0 mm 2 m/S 746 mmHg 75%
    07:00 +3°C° 0 mm 2 m/S 745 mmHg 72%
    08:00 +4°C° 0 mm 2 m/S 745 mmHg 70%
    09:00 +5°C° 0 mm 2 m/S 744 mmHg 66%
    10:00 +7°C° 0 mm 3 m/S 744 mmHg 61%
    11:00 +8°C° 0 mm 3 m/S 743 mmHg 56%
    12:00 +8°C° 0.4 mm 3 m/S 742 mmHg 60%
    13:00 +8°C° 0.4 mm 3 m/S 742 mmHg 64%
    14:00 +8°C° 0.4 mm 3 m/S 741 mmHg 68%
    15:00 +7°C° 0.3 mm 3 m/S 740 mmHg 72%
    16:00 +7°C° 0.3 mm 2 m/S 740 mmHg 76%
    17:00 +6°C° 0.3 mm 2 m/S 739 mmHg 80%
    18:00 +7°C° 0 mm 1 m/S 739 mmHg 83%
    19:00 +7°C° 0 mm 1 m/S 739 mmHg 86%
    20:00 +6°C° 0 mm 1 m/S 739 mmHg 89%
    21:00 +6°C° 0 mm 1 m/S 739 mmHg 90%
    22:00 +4°C° 0 mm 2 m/S 739 mmHg 91%
    23:00 +4°C° 0 mm 2 m/S 738 mmHg 93%

    26 März, Dienstag

    Zeit Temperatur Niederschläge Wind Luftdruck Luftfeuchtigkeit
    00:00 +2°C° 0 mm 3 m/S 738 mmHg 91%
    01:00 +2°C° 0 mm 3 m/S 737 mmHg 89%
    02:00 +2°C° 0 mm 3 m/S 737 mmHg 88%
    03:00 +1°C° 0 mm 3 m/S 737 mmHg 86%
    04:00 0°C° 0 mm 4 m/S 737 mmHg 84%
    05:00 0°C° 0 mm 4 m/S 736 mmHg 82%
    06:00 0°C° 0.2 mm 4 m/S 736 mmHg 79%
    07:00 +1°C° 0.2 mm 5 m/S 737 mmHg 76%
    08:00 +1°C° 0.2 mm 6 m/S 737 mmHg 73%
    09:00 +2°C° 0 mm 6 m/S 737 mmHg 67%
    10:00 +3°C° 0 mm 6 m/S 737 mmHg 60%
    11:00 +4°C° 0 mm 6 m/S 737 mmHg 54%
    12:00 +4°C° 0.3 mm 6 m/S 737 mmHg 54%
    13:00 +4°C° 0.3 mm 7 m/S 737 mmHg 53%
    14:00 +4°C° 0.3 mm 7 m/S 737 mmHg 53%
    15:00 +4°C° 0.1 mm 6 m/S 737 mmHg 53%
    16:00 +4°C° 0.1 mm 6 m/S 737 mmHg 53%
    17:00 +5°C° 0.1 mm 5 m/S 737 mmHg 53%
    18:00 +2°C° 0 mm 5 m/S 737 mmHg 60%
    19:00 +1°C° 0 mm 4 m/S 737 mmHg 67%
    20:00 +1°C° 0 mm 3 m/S 738 mmHg 74%
    21:00 +1°C° 0 mm 3 m/S 738 mmHg 76%
    22:00 0°C° 0 mm 3 m/S 738 mmHg 78%
    23:00 0°C° 0 mm 3 m/S 739 mmHg 80%
    Mehr zeigen